WB0VGI-1 Weather Reports


Display with metric or nautical units.
time (UTC)temp
F
wind
direction
speed
MPH
gust
MPH
rain 1hr
in
rain 24hr
in
rain mn
in
humidity
%
barometer
mb
20260504024706 60 187 3.0 3.0 0.00 0.00 0.00 37 1006.2
20260504022706 61 197 4.0 4.0 0.00 0.00 0.00 37 1006.2
20260504020706 62 207 3.0 3.0 0.00 0.00 0.00 36 1006.3
20260504014706 63 213 4.0 4.0 0.00 0.00 0.00 35 1006.3
20260504012706 65 226 5.0 5.0 0.00 0.00 0.00 34 1006.2
20260504010706 67 240 6.0 6.0 0.00 0.00 0.00 33 1005.9
20260504004706 67 236 6.0 6.0 0.00 0.00 0.00 31 1006.1
20260504002706 70 235 6.0 6.0 0.00 0.00 0.00 29 1006.1
20260504000706 70 246 7.0 7.0 0.00 0.00 0.00 29 1006.2
20260503234706 68 234 7.0 7.0 0.00 0.00 0.00 30 1006.5
20260503232706 70 243 6.0 6.0 0.00 0.00 0.00 28 1006.5
20260503230706 71 234 7.0 7.0 0.00 0.00 0.00 27 1006.5
20260503224706 71 251 5.0 5.0 0.00 0.00 0.00 28 1006.5
20260503222706 71 232 6.0 6.0 0.00 0.00 0.00 28 1006.7
20260503220706 71 317 5.0 5.0 0.00 0.00 0.00 27 1006.8
20260503214706 71 234 6.0 6.0 0.00 0.00 0.00 27 1007.0
20260503212706 71 293 4.0 4.0 0.00 0.00 0.00 27 1007.3
20260503210705 70 315 4.0 4.0 0.00 0.00 0.00 28 1007.6
20260503204705 69 341 8.0 8.0 0.00 0.00 0.00 27 1007.8
20260503202706 69 346 7.0 7.0 0.00 0.00 0.00 28 1008.0
20260503200705 69 356 8.0 8.0 0.00 0.00 0.00 26 1008.2
20260503194705 68 339 7.0 7.0 0.00 0.00 0.00 26 1008.5
20260503192705 68 359 7.0 7.0 0.00 0.00 0.00 24 1008.7
20260503190705 67 354 7.0 7.0 0.00 0.00 0.00 23 1009.0
20260503184705 67 320 5.0 5.0 0.00 0.00 0.00 25 1009.0
20260503182705 67 297 7.0 7.0 0.00 0.00 0.00 28 1009.1
20260503180705 67 277 7.0 7.0 0.00 0.00 0.00 31 1009.4
20260503174705 66 356 8.0 8.0 0.00 0.00 0.00 30 1009.6
20260503172705 66 303 7.0 7.0 0.00 0.00 0.00 32 1009.4
20260503170705 65 344 7.0 7.0 0.00 0.00 0.00 42 1009.6
20260503150705 61 351 5.0 5.0 0.00 0.00 0.00 54 1009.4
20260503130705 52 274 3.0 3.0 0.00 0.00 0.00 73 1009.4
20260503110705 45 0.0 0.0 0.00 0.00 0.00 81 1008.8
20260503080705 50 0.0 0.0 0.00 0.00 0.00 72 1009.4
20260503072705 51 51 1.0 1.0 0.00 0.00 0.00 67 1009.6
20260503070705 53 0.0 0.0 0.00 0.00 0.00 65 1009.7
20260503054705 56 154 3.0 3.0 0.00 0.00 0.00 55 1010.2
20260503052705 57 155 5.0 5.0 0.00 0.00 0.00 54 1010.1
20260503050705 57 158 3.0 3.0 0.00 0.00 0.00 53 1010.4
20260503044705 58 148 3.0 3.0 0.00 0.00 0.00 52 1010.8
20260503042705 58 152 3.0 3.0 0.00 0.00 0.00 52 1011.1
20260503040705 58 163 4.0 4.0 0.00 0.00 0.00 50 1011.4
20260503034705 59 155 3.0 3.0 0.00 0.00 0.00 50 1011.6
20260503032705 59 141 2.0 2.0 0.00 0.00 0.00 50 1012.0
20260503030705 60 161 1.0 1.0 0.00 0.00 0.00 48 1012.4